Weather in Salaspils

Latvia     56°51′26″N   24°21′05″E
temp.,
°C
wind,
m/s
gust,
m/s
humid.,
%
clouds,
%
prec.,
mm/h
press.,
hPa
HPBL,
m
17 september, fri
fri1700:00+10e41072100 0.1 1016411
03:00+9e41170100 0.1 1015457
06:00+9e41172100 0.0 1014477
09:00+9e51268100 0.0 1014555
12:00+9e41266100 0.1 1015622
15:00+11e41263100 0.1 1016723
18:00+11e2862100 0.0 1016499
21:00+9ene41266100 0.0 1017583
18 september, sat
sat1800:00+8ene41269100 0.0 1018532
03:00+6ene41272100 0.0 1018461
06:00+5ene41273100 0.0 1019452
09:00+7ene4136677 0.0 1019594
12:00+11ene6104496 0.0 10191098
15:00+14ene693946 0.0 10181483
18:00+12ene510496 0.0 10181339
21:00+8ne512600 0.0 1019811
19 september, sun
sun1900:00+7ne412700 0.0 1019635
03:00+5ne413760 0.0 1018583
06:00+5ne513800 0.0 1018578
09:00+6ne512723 0.0 1019675
12:00+11ene595588 0.0 10191044
15:00+11e4959100 0.0 10191086
18:00+10e3961100 0.0 1019841
21:00+9ne396310 0.0 1020693
20 september, mon
mon2000:00+6ne411755 0.0 1021533
03:00+4nne410815 0.0 1021455
06:00+4nne411855 0.0 1021443
09:00+5ne410773 0.0 1021480
12:00+10ne4654100 0.0 10211020
15:00+11ne5648100 0.0 10211277
18:00+10ne4755100 0.0 10211180
21:00+7ne3863100 0.0 1022521
21 september, tue
tue2100:00+6nne2771100 0.0 1022314
03:00+5nne3773100 0.0 1021357
06:00+4nne387383 0.0 1021396
09:00+5nne3770100 0.0 1021403
12:00+8n4555100 0.0 1021885
15:00+11n4548100 0.0 10201243
18:00+9nnw365590 0.0 1020893
21:00+6nne2662100 0.0 1021118